Tracking 19638 objects as of 21-Apr-2019
HD Live streaming from Space Station
objects crossing your sky now

SL-14 DEB

Track SL-14 DEB now!
10-day predictions


NORAD ID: 25199
Int'l Code: 1987-068AA
Perigee: 913.7 km
Apogee: 1,061.4 km
Inclination: 82.4 °
Period: 104.7 minutes
Semi major axis: 7358 km
RCS: 0.011 m2 (small)
Launch date: August 18, 1987
Source: Commonwealth of Independent States (former USSR) (CIS)
Launch site: PLESETSK MISSILE AND SPACE COMPLEX (PKMTR)

Note: This is SATELLITE DEBRIS
aabbcc
Your satellite tracking list
Your tracking list is empty




NASA's NSSDC Master Catalog

Two Line Element Set (TLE):
1 25199U 87068AA  19110.66566222 +.00000260 +00000-0 +24598-3 0  9991
2 25199 082.3675 197.0662 0100378 149.6972 211.0040 13.75359816058781
Source of the keplerian elements: AFSPC